Wetbulb
77.22 76.75 78.76 75.10 74.60 71.70 73.74 72.23 73.27 76.72 75.32 75.64 75.59 74.68 71.77 73.58 74.25 73.22 73.70 76.99 77.28 77.11 77.06 75.99 75.86 75.15 75.27 74.49 73.86 73.91 74.19 73.76 74.17 74.11 75.50 75.75 75.63 75.81 75.73 76.13 76.24 76.32 76.22
77.02 78.17 78.15 77.83 77.03 71.85 74.55 78.91 78.71 78.22 77.56 75.88 74.97 75.37 74.25 74.51 76.21 75.19 74.47 75.37 77.48 77.43 77.18 76.44 75.59 74.50 74.01 73.53 73.45 73.18 72.85 72.94 73.97 74.55 74.36 76.09 76.23 75.89 76.04 76.04 76.07 76.07 76.15
79.03 78.95 78.51 77.72 77.57 78.89 79.25 77.65 78.59 78.68 77.22 75.98 75.45 75.43 75.31 75.60 75.80 76.67 74.19 74.61 75.94 76.67 77.29 77.03 75.86 75.18 74.64 73.62 73.40 74.12 73.84 72.66 73.33 74.07 74.30 75.29 75.67 76.07 76.19 76.07 76.25 76.08 75.85
78.65 79.35 77.67 77.93 78.26 78.38 77.48 77.54 77.71 73.48 75.69 75.28 75.23 75.80 75.19 75.99 75.41 76.50 76.13 73.79 74.67 74.22 75.84 77.18 76.66 75.95 74.99 74.25 74.02 74.01 74.13 73.47 73.42 73.84 74.11 74.47 76.03 75.79 75.90 75.70 76.20 75.53 75.53
78.61 78.40 76.95 78.70 78.64 76.89 77.10 73.33 73.72 76.40 75.84 75.38 74.57 73.66 74.00 75.22 74.10 73.59 74.17 74.69 75.40 73.75 73.50 76.81 76.48 76.12 75.30 74.85 74.63 74.45 73.59 74.37 73.73 73.15 74.12 74.53 75.34 75.24 75.57 75.73 75.93 75.75 75.50
77.80 77.50 76.48 78.52 77.83 76.20 76.10 78.00 78.27 76.83 76.30 75.34 74.14 71.10 69.29 70.83 74.56 74.11 73.57 74.19 74.88 74.19 74.93 75.08 74.88 74.64 75.91 74.58 74.57 73.80 74.25 74.18 73.72 73.39 73.20 74.14 74.63 74.97 75.22 75.38 75.92 76.17 75.77
77.71 78.92 76.75 78.20 77.36 76.49 74.18 76.88 77.75 77.48 75.63 76.80 71.07 64.08 65.43 68.82 68.90 73.70 75.52 71.85 74.97 74.81 75.19 75.37 74.77 74.15 74.12 75.38 74.80 73.95 74.61 74.36 74.31 73.93 73.51 73.20 74.23 74.64 75.00 75.20 75.79 75.79 75.66
79.18 78.03 78.65 77.64 79.31 76.94 77.69 77.86 77.79 73.10 64.06 71.94 65.29 65.93 65.16 63.26 65.09 67.37 74.88 75.01 74.81 73.86 74.33 74.74 75.80 75.44 73.37 73.88 73.25 73.96 74.49 74.51 74.12 73.98 73.80 73.97 73.94 74.60 75.12 75.34 75.73 75.80 75.46
78.14 79.32 78.83 78.79 77.77 77.00 69.70 72.25 76.52 73.08 64.09 69.26 76.11 71.32 65.14 61.05 64.76 69.48 73.66 73.43 73.93 72.65 73.62 74.10 74.91 75.07 74.97 73.99 73.05 73.09 74.10 74.65 74.46 74.28 74.24 74.18 74.23 74.73 74.90 75.23 75.27 75.19 75.12
78.53 78.07 78.87 79.10 79.17 78.04 71.16 73.18 77.22 76.28 75.38 70.69 70.08 72.68 75.64 70.82 66.93 65.28 70.74 73.18 74.19 74.09 74.44 73.65 74.06 74.94 73.69 73.76 73.30 73.47 73.63 73.80 73.95 74.45 74.34 74.17 74.35 74.53 74.75 75.05 75.38 75.20 74.88
79.48 78.90 78.30 78.31 77.59 69.91 67.56 75.63 77.61 76.63 76.79 74.79 73.21 73.69 71.95 69.39 64.95 67.39 67.06 70.39 71.46 74.48 73.97 73.87 74.49 74.60 74.40 74.19 72.37 73.10 73.31 73.33 73.43 73.75 74.55 74.27 74.22 74.39 74.47 74.58 74.58 74.72 74.82
76.79 79.73 78.10 79.13 77.77 70.49 66.17 75.36 78.79 78.50 76.77 77.74 76.89 75.46 72.69 69.05 66.62 69.36 69.71 70.32 70.71 72.93 73.51 73.70 74.53 73.89 74.87 73.71 73.29 73.58 72.93 72.51 72.45 72.78 73.30 73.91 74.35 74.53 74.55 74.51 74.44 74.50 74.45
73.64 77.16 78.07 78.63 78.58 77.64 75.90 79.13 78.77 77.88 78.08 76.70 77.76 75.99 74.67 72.00 71.45 66.72 68.03 69.70 68.99 69.27 72.18 73.95 73.40 74.89 75.17 73.19 72.73 73.01 72.82 72.17 71.79 71.31 71.55 72.59 73.47 73.94 74.60 74.24 74.41 74.48 74.48
70.66 74.40 77.88 78.48 78.20 76.84 77.61 79.21 77.31 77.47 74.74 76.83 78.13 77.50 75.71 72.59 73.36 70.86 71.77 71.53 69.00 68.63 71.62 72.52 74.35 73.40 74.27 74.05 73.95 73.13 71.43 71.55 71.40 71.09 70.85 70.88 71.68 72.36 73.26 73.74 73.90 74.00 73.78
73.04 73.49 72.94 77.50 78.88 78.06 76.71 77.85 76.85 76.63 77.74 77.34 77.24 77.35 75.66 71.82 69.36 73.94 76.04 73.68 70.74 67.30 66.00 69.27 69.94 74.26 73.98 73.81 74.23 73.70 71.88 70.79 71.45 71.17 71.15 71.39 71.19 71.12 71.39 71.93 72.35 72.65 72.90
71.78 69.88 72.20 78.00 77.85 77.42 77.33 78.94 77.56 77.32 77.18 76.98 76.04 73.80 75.35 75.80 73.70 75.49 72.18 74.55 73.83 71.77 68.03 69.54 69.09 74.24 74.71 74.64 73.35 75.60 71.79 71.55 71.08 69.83 68.54 68.43 68.52 68.88 69.31 69.70 70.52 70.79 70.86
74.08 74.35 74.85 77.77 76.88 77.89 78.36 77.77 77.18 76.07 74.66 74.82 75.83 76.36 75.72 76.64 75.45 75.69 75.44 75.10 73.87 73.52 68.63 71.26 72.05 74.37 74.62 73.82 74.62 73.91 71.84 70.91 67.89 67.11 66.39 65.90 65.58 65.68 65.90 66.17 66.93 67.53 68.69
77.70 76.28 76.79 76.62 77.36 77.37 78.00 78.10 77.49 73.85 71.71 73.67 74.75 75.07 74.64 74.65 76.25 75.83 75.30 75.58 75.13 75.22 72.61 69.58 71.59 73.28 73.81 75.60 75.22 74.29 74.06 71.01 66.95 65.41 64.80 64.17 63.64 63.26 62.72 62.74 62.93 63.72 64.94
77.81 77.73 77.63 77.45 78.00 76.74 77.28 78.16 77.85 75.96 72.52 73.85 74.02 75.97 75.94 75.72 75.18 75.17 74.87 74.34 74.03 73.04 73.88 72.73 71.60 73.63 73.28 74.57 74.37 73.33 71.08 68.47 65.79 64.59 63.27 62.58 62.40 62.40 61.87 61.20 60.44 60.08 61.99
76.89 77.23 77.65 77.74 77.62 77.39 77.36 77.05 77.13 77.37 76.10 76.38 75.57 74.85 74.66 74.91 74.97 76.03 74.83 74.57 73.97 74.15 73.06 70.80 70.54 70.25 70.69 72.00 71.89 69.99 69.20 67.08 64.28 66.01 64.15 62.52 62.07 62.62 62.37 61.37 61.06 59.68 58.20
76.37 76.92 77.44 77.19 76.80 76.95 75.09 77.15 76.63 76.21 76.33 75.84 76.12 75.73 72.16 70.35 68.25 69.04 73.84 75.11 74.22 72.25 71.26 70.08 69.16 68.43 68.21 68.07 68.46 69.68 68.75 67.60 66.61 63.18 60.98 62.23 61.19 61.72 60.38 61.13 61.43 60.51 58.45
77.12 76.95 76.39 76.46 75.95 75.09 66.99 68.87 74.72 75.47 77.24 76.18 75.46 75.62 73.29 68.68 66.46 65.57 65.37 64.69 65.86 72.34 72.37 71.72 70.89 68.84 68.36 68.43 69.40 68.73 68.05 67.19 65.45 67.00 63.37 61.26 58.32 55.67 56.79 57.23 58.96 59.02 58.11
75.20 74.88 75.25 76.01 76.14 72.42 66.30 67.73 67.92 74.91 75.24 75.99 75.65 75.70 74.87 72.79 72.98 70.62 64.77 64.93 64.48 64.90 65.66 70.30 70.51 68.39 68.23 66.52 68.03 68.32 68.37 68.32 66.62 65.99 60.75 57.17 56.71 54.52 56.09 55.83 56.75 56.54 56.19
75.09 74.75 75.00 75.63 75.05 65.24 63.50 65.59 66.48 72.46 75.20 74.58 73.10 70.58 74.22 73.06 68.86 72.22 72.79 67.72 63.53 61.57 62.57 65.80 63.73 61.85 63.23 65.41 66.79 70.69 68.88 66.99 64.23 62.66 61.87 54.92 56.11 53.68 55.25 54.95 55.84 55.41 55.01
72.28 73.63 71.11 72.47 71.80 65.75 61.19 61.83 66.44 74.30 73.49 71.30 69.35 64.48 69.40 69.37 63.01 63.61 69.93 66.32 62.21 60.21 59.83 59.93 59.49 60.02 60.87 62.28 64.23 68.77 66.61 64.67 62.98 60.92 60.35 56.65 54.29 53.13 54.80 54.42 55.06 55.07 54.31
68.34 68.03 65.12 65.75 63.57 64.92 57.45 59.26 63.24 70.85 70.20 70.02 69.35 66.23 58.70 60.90 58.95 61.16 67.97 66.04 60.64 59.92 59.76 58.78 57.98 58.48 59.94 60.62 61.76 63.82 65.40 63.41 61.42 58.94 59.31 55.16 53.10 54.18 51.08 55.37 56.17 56.12 54.50
MSLP
1014.63 1014.53 1014.57 1015.22 1016.06 1017.10 1016.48 1015.75 1015.29 1013.82 1013.69 1013.68 1014.38 1014.84 1015.03 1014.78 1014.64 1015.04 1015.51 1015.74 1015.87 1015.89 1016.24 1016.76 1016.96 1016.94 1017.06 1017.13 1017.13 1017.24 1017.38 1017.46 1017.46 1017.46 1017.52 1017.75 1017.92 1018.30 1018.66 1018.83 1018.99 1019.33 1019.73
1014.41 1014.10 1014.43 1014.78 1014.46 1014.86 1014.58 1013.74 1012.95 1012.25 1012.66 1013.25 1014.11 1014.33 1014.34 1014.23 1014.42 1015.14 1015.86 1016.37 1016.50 1015.96 1015.66 1016.24 1016.90 1016.92 1016.94 1017.01 1017.01 1017.13 1017.26 1017.40 1017.37 1017.31 1017.30 1017.44 1017.59 1017.86 1018.17 1018.42 1018.73 1018.98 1019.42
1014.38 1014.53 1014.43 1014.40 1014.51 1013.84 1013.33 1012.56 1011.57 1012.66 1012.03 1013.29 1014.36 1014.41 1014.27 1014.45 1014.47 1015.08 1015.58 1016.18 1016.50 1016.64 1015.89 1015.84 1016.54 1016.89 1016.85 1016.92 1016.85 1016.87 1016.91 1017.10 1017.15 1017.17 1017.16 1017.17 1017.38 1017.64 1017.84 1018.09 1018.35 1018.74 1019.20
1014.55 1014.29 1014.19 1013.90 1013.83 1013.27 1012.81 1013.54 1013.02 1013.05 1012.59 1013.62 1014.38 1014.61 1014.67 1014.57 1014.59 1014.95 1014.88 1016.35 1016.89 1016.61 1015.40 1015.63 1016.26 1016.72 1016.73 1016.86 1016.85 1016.85 1016.95 1017.01 1016.99 1017.03 1017.03 1016.97 1017.17 1017.46 1017.63 1017.82 1018.09 1018.53 1019.06
1014.63 1014.59 1013.81 1013.41 1013.29 1012.90 1013.58 1014.08 1014.48 1013.58 1013.08 1013.67 1014.34 1014.85 1015.22 1014.89 1014.56 1014.13 1013.79 1013.77 1014.93 1014.90 1014.92 1015.39 1016.23 1016.66 1016.71 1016.82 1016.70 1016.78 1016.86 1016.85 1016.86 1016.90 1016.87 1016.88 1017.05 1017.31 1017.52 1017.69 1017.99 1018.40 1018.79
1014.65 1014.50 1013.94 1013.49 1013.61 1013.35 1014.29 1014.97 1014.68 1014.01 1013.97 1013.99 1014.71 1016.77 1016.55 1016.37 1014.93 1014.17 1013.37 1013.75 1013.82 1014.67 1014.96 1015.54 1016.15 1016.49 1016.83 1016.87 1016.66 1016.71 1016.76 1016.84 1016.86 1016.83 1016.85 1016.86 1017.03 1017.20 1017.29 1017.42 1017.68 1018.01 1018.47
1014.53 1014.42 1014.37 1014.33 1014.11 1014.41 1015.09 1015.28 1014.09 1014.88 1014.77 1014.59 1016.63 1019.10 1017.53 1016.51 1015.63 1014.98 1013.97 1014.80 1014.01 1014.45 1014.70 1015.40 1015.85 1016.08 1016.79 1016.84 1016.73 1016.77 1016.80 1016.83 1016.80 1016.80 1016.86 1016.89 1016.95 1017.09 1017.11 1017.23 1017.48 1017.81 1018.25
1014.17 1014.53 1014.79 1014.75 1014.90 1014.77 1014.70 1014.72 1014.70 1016.27 1016.40 1016.31 1017.69 1018.12 1018.48 1016.46 1016.72 1016.35 1014.73 1014.79 1014.64 1014.73 1014.94 1015.05 1015.12 1015.49 1016.18 1016.45 1016.69 1016.84 1016.99 1016.94 1016.88 1016.83 1016.88 1016.92 1016.93 1016.97 1017.03 1017.12 1017.34 1017.74 1018.19
1014.00 1014.47 1014.78 1014.91 1015.32 1015.53 1015.89 1015.92 1015.51 1016.46 1017.15 1016.56 1015.68 1015.99 1017.28 1017.89 1017.60 1016.20 1015.24 1015.29 1014.92 1014.94 1015.05 1015.07 1015.00 1015.18 1015.64 1016.30 1016.62 1016.81 1017.10 1017.10 1016.94 1016.92 1016.94 1016.97 1016.99 1017.01 1017.11 1017.27 1017.45 1017.74 1018.16
1013.84 1014.34 1014.72 1014.97 1014.94 1015.37 1015.43 1015.74 1015.02 1016.31 1016.49 1016.63 1015.96 1015.32 1014.73 1016.30 1017.87 1017.75 1015.89 1015.45 1015.05 1014.92 1015.13 1015.12 1015.01 1015.11 1015.46 1016.28 1016.75 1016.92 1017.11 1017.26 1017.22 1017.08 1017.03 1017.05 1017.08 1017.13 1017.19 1017.35 1017.63 1017.97 1018.34
1013.98 1014.29 1015.05 1014.92 1015.01 1015.16 1015.12 1014.82 1015.31 1016.12 1016.36 1016.28 1015.53 1015.14 1014.99 1015.18 1015.44 1016.84 1016.13 1015.49 1015.10 1015.06 1014.81 1014.87 1014.95 1015.00 1015.29 1015.82 1016.65 1017.04 1017.13 1017.42 1017.52 1017.44 1017.26 1017.22 1017.26 1017.34 1017.40 1017.53 1017.82 1018.12 1018.49
1014.25 1014.33 1014.90 1014.87 1014.83 1015.45 1015.28 1015.31 1015.23 1015.73 1015.94 1015.39 1014.97 1014.55 1014.49 1015.21 1016.04 1016.42 1015.78 1015.24 1015.11 1015.07 1014.70 1014.77 1014.93 1014.96 1015.35 1015.70 1016.23 1017.04 1017.17 1017.49 1017.68 1017.71 1017.65 1017.54 1017.47 1017.51 1017.62 1017.75 1017.95 1018.22 1018.55
1014.64 1014.55 1015.04 1015.05 1014.73 1014.72 1014.89 1014.36 1014.74 1015.36 1015.24 1015.04 1014.66 1014.51 1014.14 1014.97 1015.51 1015.06 1016.19 1015.67 1015.50 1015.50 1015.05 1014.81 1014.79 1014.55 1015.05 1015.76 1016.41 1016.95 1017.29 1017.54 1017.76 1017.86 1017.96 1018.00 1017.95 1017.87 1017.88 1018.00 1018.19 1018.35 1018.59
1014.69 1014.90 1014.89 1014.71 1014.74 1014.69 1014.20 1014.25 1014.45 1014.47 1014.38 1014.52 1014.41 1014.72 1014.99 1015.59 1015.27 1015.74 1015.31 1014.83 1015.20 1015.69 1015.37 1015.12 1014.75 1014.60 1014.86 1015.47 1016.07 1016.67 1017.34 1017.62 1017.88 1018.07 1018.20 1018.29 1018.36 1018.37 1018.42 1018.48 1018.58 1018.68 1018.84
1014.73 1015.15 1015.60 1015.02 1014.61 1014.47 1014.31 1014.25 1014.23 1014.07 1014.16 1014.13 1014.30 1014.80 1015.05 1015.18 1014.41 1014.57 1014.31 1014.44 1014.74 1015.17 1015.63 1015.73 1015.73 1015.44 1015.27 1015.29 1015.85 1016.47 1017.17 1017.72 1018.01 1018.19 1018.39 1018.50 1018.61 1018.68 1018.73 1018.82 1018.96 1019.05 1019.16
1014.98 1015.12 1015.25 1014.75 1014.57 1014.30 1014.07 1013.96 1013.85 1013.78 1014.05 1014.10 1014.27 1014.72 1015.02 1015.05 1015.14 1014.70 1014.40 1014.59 1014.41 1014.96 1015.58 1016.11 1016.52 1015.71 1015.46 1015.44 1015.81 1016.12 1017.05 1017.68 1018.17 1018.45 1018.69 1018.87 1019.02 1019.14 1019.19 1019.22 1019.25 1019.33 1019.44
1015.10 1015.09 1014.42 1014.20 1014.13 1013.80 1013.45 1013.45 1013.67 1014.60 1015.10 1015.41 1015.19 1014.71 1014.82 1014.89 1014.90 1015.05 1014.81 1014.29 1014.11 1014.60 1015.53 1016.12 1016.37 1016.15 1015.98 1015.74 1015.89 1016.48 1017.13 1017.81 1018.59 1018.83 1019.09 1019.26 1019.37 1019.47 1019.56 1019.57 1019.58 1019.63 1019.66
1014.04 1014.25 1014.31 1014.15 1013.77 1013.60 1013.19 1013.18 1013.99 1015.24 1015.75 1015.65 1015.16 1014.85 1014.56 1014.58 1014.89 1014.86 1014.70 1014.40 1014.17 1014.28 1014.85 1015.71 1015.93 1016.05 1015.88 1015.78 1016.03 1016.59 1016.93 1017.79 1018.66 1019.21 1019.42 1019.65 1019.81 1019.94 1020.01 1020.02 1019.97 1019.90 1019.89
1013.19 1013.58 1013.65 1013.55 1013.51 1013.54 1013.25 1013.12 1013.87 1014.87 1015.71 1015.13 1014.74 1014.34 1014.03 1014.32 1014.65 1014.73 1014.79 1014.86 1014.62 1014.35 1014.68 1015.01 1015.59 1015.58 1015.66 1015.82 1016.43 1017.03 1017.60 1018.32 1019.01 1019.57 1019.85 1020.13 1020.31 1020.32 1020.30 1020.30 1020.25 1020.04 1019.91
1012.73 1012.97 1013.22 1013.37 1013.46 1013.39 1013.22 1013.08 1013.28 1014.08 1014.56 1014.31 1014.14 1013.80 1013.80 1014.16 1014.51 1014.71 1014.75 1014.93 1014.78 1014.97 1015.26 1015.66 1016.14 1016.50 1016.81 1016.65 1016.54 1016.85 1018.05 1018.36 1018.89 1018.83 1019.75 1020.33 1020.67 1020.83 1020.81 1020.77 1020.61 1020.59 1020.37
1012.34 1012.67 1012.84 1013.00 1013.13 1013.17 1013.26 1013.17 1013.28 1013.58 1013.65 1013.52 1013.61 1013.74 1014.32 1014.80 1014.94 1014.98 1015.02 1014.97 1015.08 1015.38 1015.78 1016.22 1016.59 1016.96 1017.18 1017.34 1017.24 1017.13 1017.42 1018.11 1018.77 1019.16 1019.97 1020.17 1020.61 1020.99 1021.33 1021.47 1021.47 1021.39 1021.15
1011.90 1012.23 1012.50 1012.72 1013.01 1013.09 1013.45 1013.38 1013.43 1013.73 1013.75 1013.90 1014.05 1014.36 1014.80 1015.37 1015.53 1015.60 1015.69 1015.76 1015.90 1015.93 1016.17 1016.47 1016.78 1017.11 1017.13 1017.23 1017.22 1017.25 1017.77 1018.09 1018.58 1018.86 1019.57 1020.52 1020.89 1021.93 1022.29 1022.31 1022.30 1022.22 1022.06
1011.78 1012.08 1012.37 1012.62 1012.89 1013.60 1013.92 1013.86 1013.90 1014.01 1014.12 1014.22 1014.53 1014.67 1014.89 1015.50 1015.65 1015.97 1016.17 1016.26 1016.50 1016.68 1016.74 1016.87 1017.14 1017.45 1017.52 1017.77 1017.71 1017.22 1017.34 1017.76 1018.26 1018.98 1019.60 1021.18 1021.85 1022.54 1022.91 1023.09 1023.04 1023.06 1022.96
1011.32 1011.60 1012.25 1012.50 1012.97 1014.26 1014.51 1014.49 1014.30 1014.21 1014.31 1014.60 1015.13 1015.36 1015.31 1015.71 1015.91 1016.05 1016.21 1016.64 1017.21 1017.55 1017.54 1017.42 1017.94 1018.29 1018.35 1017.98 1017.77 1017.40 1017.65 1018.24 1018.83 1019.47 1019.84 1021.62 1022.40 1023.11 1023.45 1023.73 1023.72 1023.75 1023.71
1011.52 1011.73 1012.46 1012.47 1013.02 1014.56 1014.85 1014.63 1014.40 1014.26 1014.69 1015.32 1015.66 1016.27 1016.29 1016.33 1016.46 1016.47 1016.54 1017.10 1017.81 1018.30 1018.51 1018.50 1018.67 1018.80 1018.61 1018.19 1017.73 1017.63 1018.20 1018.54 1019.21 1020.05 1020.46 1021.38 1022.85 1023.53 1023.91 1024.18 1024.30 1024.42 1024.50
1012.31 1012.86 1013.30 1013.94 1014.13 1014.76 1014.92 1014.83 1014.81 1014.80 1015.13 1015.42 1016.14 1016.77 1017.21 1017.23 1017.06 1016.95 1016.99 1017.23 1018.19 1018.84 1018.89 1019.06 1019.00 1018.88 1018.70 1018.56 1018.26 1018.09 1018.02 1018.47 1019.15 1020.14 1021.02 1021.73 1022.89 1023.40 1024.11 1024.34 1024.26 1024.48 1024.59
Wind_Speed
4 3 3 6 7 4 4 9 11 7 4 2 7 7 5 3 1 4 4 13 11 11 10 8 7 6 6 4 3 3 3 1 4 5 11 11 12 13 13 13 12 11 11
3 1 3 4 6 13 9 2 3 4 3 5 6 6 5 1 2 3 5 5 11 13 13 10 8 7 6 5 5 4 3 1 3 5 4 11 11 11 14 14 13 12 11
4 5 3 3 3 3 6 5 6 3 5 5 6 3 6 4 5 3 6 3 6 9 11 12 10 7 7 5 3 5 2 2 4 5 5 7 11 10 9 10 13 12 11
5 3 4 2 3 6 4 4 5 8 2 5 4 2 3 4 4 5 4 15 7 7 8 10 10 8 9 8 6 5 7 4 3 5 4 5 11 9 8 8 9 12 11
2 4 6 2 4 7 1 11 12 4 4 4 5 1 3 4 4 4 5 9 16 7 4 10 9 8 8 8 8 7 5 5 3 1 2 6 7 7 8 8 8 10 12
3 4 7 2 4 8 9 2 1 5 4 4 11 14 10 10 3 4 6 7 9 8 10 8 6 5 7 8 9 8 7 5 4 3 2 4 5 7 9 10 10 12 13
4 5 6 2 4 5 8 10 4 3 3 5 13 4 12 10 10 9 3 6 4 6 5 8 4 5 5 9 9 9 9 8 6 5 3 2 4 6 7 8 11 13 14
4 5 4 3 1 5 4 5 5 6 5 7 7 4 4 7 6 11 3 5 2 2 4 5 6 7 8 5 8 12 10 10 8 7 5 4 3 4 6 7 11 12 13
6 4 2 2 4 4 7 10 4 4 4 9 3 4 3 3 5 12 2 3 0 2 4 5 5 4 6 7 8 10 11 10 11 9 7 6 5 5 6 6 9 12 12
5 6 4 1 2 2 9 11 4 4 3 4 7 6 2 7 5 5 4 2 2 3 3 3 3 4 7 6 11 13 12 10 11 11 8 7 7 7 7 8 8 9 9
3 3 5 4 2 5 7 9 3 3 3 3 3 3 4 2 5 1 1 1 1 2 5 4 4 4 6 9 7 8 12 9 9 12 11 8 7 8 8 9 9 9 9
4 3 6 4 5 9 9 9 3 2 5 2 3 5 3 4 0 0 2 1 1 2 2 3 5 4 6 7 12 12 12 10 9 10 11 11 7 8 9 9 10 10 10
3 5 5 4 3 5 9 2 2 4 3 2 3 4 6 5 2 4 3 3 3 3 2 3 4 3 7 8 8 11 12 10 9 9 10 11 12 10 7 7 8 10 11
6 6 5 5 6 7 4 3 4 2 3 3 2 5 4 8 2 1 3 3 2 1 2 4 3 3 7 6 9 15 7 10 9 9 9 9 10 10 11 9 5 6 8
5 4 10 5 6 6 5 4 4 4 4 2 3 3 2 2 10 5 3 4 1 3 4 5 5 5 5 8 8 8 7 9 9 9 9 9 9 9 9 8 8 8 8
9 13 16 5 4 4 4 4 4 4 2 2 3 5 2 1 6 4 2 1 0 2 2 2 2 4 4 6 5 7 9 10 9 10 10 10 9 9 9 8 7 5 5
16 13 12 6 6 5 6 5 4 4 4 7 5 3 2 3 3 3 3 2 2 2 4 1 5 4 6 8 5 8 8 8 7 11 11 11 10 10 9 7 5 5 5
6 7 7 7 5 5 5 4 2 6 8 11 7 4 3 4 2 5 4 4 2 2 3 3 5 3 4 6 5 5 4 9 8 12 14 14 13 11 10 8 6 3 2
7 7 7 6 5 6 5 5 5 4 11 12 6 3 2 3 3 3 3 5 4 3 4 3 3 3 2 4 4 3 9 8 9 16 17 16 15 14 13 12 9 6 1
7 6 6 6 6 6 6 6 5 3 5 3 4 3 1 3 4 3 3 4 4 1 3 4 4 4 4 3 1 3 6 5 8 8 11 11 12 15 15 15 14 13 11
9 7 6 6 8 5 7 6 4 4 3 4 6 6 9 7 8 6 2 3 1 1 1 2 2 3 2 6 3 3 3 5 6 7 6 6 5 4 8 12 12 15 16
7 7 8 7 6 5 7 6 3 3 1 3 3 4 6 8 8 10 11 14 8 3 1 1 1 2 3 3 2 1 4 5 3 3 6 7 8 7 7 6 12 14 16
8 10 7 7 6 5 5 6 4 1 2 2 3 2 2 3 5 6 7 10 9 11 7 2 3 3 3 3 4 3 4 3 3 4 10 7 7 7 6 6 12 13 13
10 8 6 7 5 6 3 3 2 1 2 2 6 8 4 5 5 4 2 9 10 9 10 9 9 7 5 4 3 3 4 6 7 6 5 5 5 7 6 5 13 12 13
7 3 3 6 6 6 4 6 5 1 5 6 8 9 7 6 7 7 4 8 9 8 11 13 12 9 10 11 8 2 4 6 3 2 5 4 2 4 3 4 4 9 8
5 5 9 7 8 7 8 8 6 2 5 6 6 7 14 8 8 11 4 7 8 4 5 5 6 7 9 9 13 6 1 5 3 3 2 4 3 2 2 1 3 3 3
Wind_Direction
259 180 250 118 117 32 242 213 211 194 154 150 135 166 186 214 293 153 158 154 160 159 141 129 115 105 106 104 113 126 114 144 197 217 230 226 217 211 213 213 211 210 209
217 300 293 280 132 171 230 159 178 179 160 147 131 144 127 157 270 170 136 164 176 162 143 133 123 113 113 118 119 122 123 152 242 244 250 213 216 206 204 210 212 209 203
305 322 281 319 58 264 228 219 220 323 159 143 131 156 137 170 266 217 176 144 173 159 142 141 137 134 122 111 71 59 107 145 227 251 243 234 204 193 196 210 212 207 201
313 274 268 253 356 275 285 14 335 184 138 103 93 143 92 151 255 300 164 148 209 172 151 153 154 161 144 131 104 73 57 27 239 251 251 238 190 195 197 202 204 203 198
203 276 289 86 285 279 46 75 288 348 49 66 115 158 171 161 217 276 288 123 170 158 115 162 171 165 141 129 108 95 52 33 64 225 221 178 189 193 202 199 208 200 189
162 277 293 155 285 289 13 75 101 7 4 49 36 6 17 349 323 259 277 169 117 160 152 153 169 151 142 132 109 88 54 50 51 79 147 178 198 208 204 217 207 186 182
208 236 279 190 279 310 122 276 355 307 332 74 81 358 321 302 350 283 270 177 87 106 134 145 166 139 157 136 112 84 60 67 74 78 96 154 192 208 188 186 179 175 174
219 248 275 267 194 336 354 340 9 29 2 345 129 56 287 326 23 323 45 82 321 138 131 119 142 146 156 147 123 92 66 54 67 76 77 96 134 163 167 162 170 170 172
217 199 192 358 4 22 28 317 282 136 141 276 129 150 202 216 18 322 233 68 357 113 120 127 91 98 100 123 115 98 76 51 45 70 73 81 99 118 143 155 160 163 168
224 155 160 103 221 77 164 243 291 75 95 253 52 285 310 97 136 233 284 185 170 128 98 58 129 107 116 94 93 102 88 66 48 41 73 82 95 117 131 141 144 152 160
240 190 122 193 171 55 332 297 53 72 227 255 170 237 124 23 85 52 172 296 127 166 158 179 163 156 99 135 115 108 101 79 59 47 47 77 97 108 111 118 132 142 145
195 221 156 194 154 125 231 256 354 275 279 24 343 344 271 135 349 114 349 157 226 162 168 167 135 176 119 115 105 120 106 93 73 54 43 46 81 115 120 130 136 144 149
30 200 177 185 226 191 228 225 250 251 314 349 326 341 350 81 162 150 129 279 104 310 324 124 125 140 108 116 129 122 112 104 89 77 62 48 48 59 91 127 144 154 159
26 318 196 186 208 216 230 201 248 240 50 325 336 6 3 11 73 271 210 163 97 176 330 222 163 146 126 131 139 129 123 114 101 86 78 72 64 62 63 72 107 145 160
202 332 310 231 211 207 217 181 239 268 161 248 14 7 329 48 333 320 18 37 222 203 218 19 10 125 129 133 153 136 134 128 114 100 82 69 64 64 70 75 77 81 91
127 199 259 214 249 257 228 216 259 273 312 301 92 91 302 121 221 279 345 208 56 24 74 176 329 183 146 117 146 104 129 129 109 95 93 85 75 62 53 53 58 73 84
184 178 232 186 231 249 240 219 238 340 342 307 277 206 165 251 283 318 293 312 10 82 103 135 157 146 138 125 126 121 146 117 93 89 84 76 69 64 57 44 30 23 27
198 187 206 215 218 266 257 242 241 69 47 292 252 257 240 270 120 298 298 316 3 28 129 149 170 175 104 109 120 152 140 111 109 95 89 78 71 63 52 39 19 339 294
192 208 209 213 214 242 251 244 231 161 179 223 253 216 236 312 264 315 328 323 353 346 351 43 31 52 78 125 135 117 111 108 100 106 94 85 78 71 63 54 42 37 63
216 214 199 213 230 238 234 252 233 237 263 260 296 345 329 31 26 276 297 338 326 41 17 27 41 33 17 289 121 136 142 136 147 121 89 101 92 79 66 55 56 54 61
198 221 211 215 219 214 244 227 235 215 262 317 344 345 57 75 65 62 360 344 3 101 72 49 49 100 191 266 245 177 163 138 111 133 134 132 115 82 51 46 54 70 74
198 199 214 213 230 237 44 29 178 221 257 282 295 343 112 112 78 72 74 61 43 14 320 105 67 168 189 205 173 154 130 156 126 94 121 75 87 63 49 43 61 70 81
210 213 214 214 216 120 76 51 45 266 302 330 313 329 73 102 155 120 97 102 67 42 21 359 344 53 53 22 312 206 191 197 116 119 105 83 84 78 63 54 65 75 80
212 205 212 212 214 82 57 68 67 203 310 29 53 36 25 103 35 42 137 73 62 44 25 55 52 44 43 356 351 0 87 95 78 63 88 105 90 88 78 62 66 66 67
223 191 30 242 136 105 36 45 15 187 111 92 76 42 17 66 29 26 112 109 98 95 63 61 62 52 47 45 36 127 111 140 104 71 17 105 102 98 76 84 68 67 70
102 95 76 60 74 106 44 38 37 318 147 126 102 94 42 37 37 41 33 127 101 58 62 46 35 33 37 34 33 43 44 110 109 117 93 93 118 125 95 151 154 151 128